Location: Molino di Ancona
(43.6167°N, 13.3667°E)
Time: 09:38:59
(UTC+00:00)

IRS-1C Rocket - Pass Details

Date: 15 December 2019
Orbit: 800 x 806 km, 99.0° (Epoch: 19 January)

Event Time Altitude Azimuth Distance (km) Brightness Sun altitude
Rises 05:52:58 0° 10° (N) 3,321 7.1 -7.1°
Reaches altitude 10° 05:55:20 10° 7° (N) 2,386 6.4 -6.7°
Maximum altitude 06:00:30 61° 289° (WNW) 907 4.1 -5.9°
Drops below altitude 10° 06:05:39 10° 210° (SSW) 2,368 6.5 -5.1°
Sets 06:08:00 0° 207° (SSW) 3,294 7.3 -4.7°
